Stündliche Wetter Aadorf

Heute, 24 Juni, Donnerstag

Zeit Temperatur Niederschläge Wind Luftdruck Luftfeuchtigkeit
00:00 +15°C° 0.9 mm 1 m/S 710 mmHg 98%
01:00 +15°C° 0.9 mm 1 m/S 710 mmHg 98%
02:00 +14°C° 0.2 mm 0 m/S 710 mmHg 97%
03:00 +13°C° 0.2 mm 0 m/S 710 mmHg 97%
04:00 +13°C° 0.2 mm 0 m/S 710 mmHg 97%
05:00 +13°C° 0.1 mm 0 m/S 710 mmHg 96%
06:00 +14°C° 0.1 mm 0 m/S 710 mmHg 95%
07:00 +15°C° 0.1 mm 0 m/S 710 mmHg 93%
08:00 +16°C° 0.2 mm 0 m/S 710 mmHg 88%
09:00 +17°C° 0.2 mm 0 m/S 710 mmHg 82%
10:00 +21°C° 0.2 mm 1 m/S 710 mmHg 77%
11:00 +21°C° 0.6 mm 1 m/S 710 mmHg 75%
12:00 +22°C° 0.6 mm 1 m/S 710 mmHg 74%
13:00 +23°C° 0.6 mm 1 m/S 710 mmHg 72%
14:00 +22°C° 1.7 mm 1 m/S 710 mmHg 77%
15:00 +20°C° 1.7 mm 2 m/S 709 mmHg 83%
16:00 +19°C° 1.7 mm 2 m/S 709 mmHg 88%
17:00 +17°C° 6 mm 3 m/S 710 mmHg 91%
18:00 +14°C° 6 mm 4 m/S 710 mmHg 93%
19:00 +13°C° 6 mm 5 m/S 711 mmHg 96%
20:00 +12°C° 1.4 mm 4 m/S 711 mmHg 96%
21:00 +13°C° 1.4 mm 2 m/S 712 mmHg 95%
22:00 +13°C° 1.4 mm 1 m/S 712 mmHg 95%
23:00 +13°C° 0 mm 1 m/S 712 mmHg 95%

Morgen, 25 Juni, Freitag

Zeit Temperatur Niederschläge Wind Luftdruck Luftfeuchtigkeit
00:00 +13°C° 0 mm 1 m/S 712 mmHg 95%
01:00 +13°C° 0 mm 1 m/S 711 mmHg 95%
02:00 +12°C° 0 mm 1 m/S 711 mmHg 95%
03:00 +12°C° 0 mm 1 m/S 711 mmHg 95%
04:00 +11°C° 0 mm 1 m/S 711 mmHg 95%
05:00 +12°C° 0 mm 1 m/S 711 mmHg 95%
06:00 +13°C° 0 mm 1 m/S 712 mmHg 94%
07:00 +14°C° 0 mm 1 m/S 712 mmHg 94%
08:00 +14°C° 0 mm 1 m/S 712 mmHg 90%
09:00 +15°C° 0 mm 1 m/S 712 mmHg 87%
10:00 +16°C° 0 mm 1 m/S 711 mmHg 84%
11:00 +18°C° 0.1 mm 1 m/S 711 mmHg 76%
12:00 +19°C° 0.1 mm 2 m/S 711 mmHg 69%
13:00 +20°C° 0.1 mm 2 m/S 711 mmHg 61%
14:00 +20°C° 0.4 mm 2 m/S 711 mmHg 64%
15:00 +20°C° 0.4 mm 2 m/S 711 mmHg 67%
16:00 +20°C° 0.4 mm 2 m/S 711 mmHg 71%
17:00 +20°C° 0.5 mm 1 m/S 711 mmHg 77%
18:00 +19°C° 0.5 mm 1 m/S 711 mmHg 83%
19:00 +18°C° 0.5 mm 1 m/S 711 mmHg 89%
20:00 +16°C° 0.1 mm 1 m/S 711 mmHg 90%
21:00 +14°C° 0.1 mm 1 m/S 711 mmHg 92%
22:00 +13°C° 0.1 mm 1 m/S 711 mmHg 94%
23:00 +13°C° 0 mm 1 m/S 711 mmHg 94%

übermorgen, 26 Juni, Samstag

Zeit Temperatur Niederschläge Wind Luftdruck Luftfeuchtigkeit
00:00 +12°C° 0 mm 1 m/S 711 mmHg 94%
01:00 +12°C° 0 mm 1 m/S 711 mmHg 95%
02:00 +12°C° 0 mm 1 m/S 711 mmHg 95%
03:00 +10°C° 0 mm 0 m/S 711 mmHg 95%
04:00 +10°C° 0 mm 0 m/S 710 mmHg 95%
05:00 +11°C° 0 mm 0 m/S 710 mmHg 94%
06:00 +12°C° 0 mm 0 m/S 711 mmHg 93%
07:00 +13°C° 0 mm 0 m/S 711 mmHg 92%
08:00 +16°C° 0 mm 1 m/S 711 mmHg 83%
09:00 +19°C° 0 mm 1 m/S 711 mmHg 75%
10:00 +21°C° 0 mm 1 m/S 711 mmHg 66%
11:00 +22°C° 0 mm 1 m/S 711 mmHg 63%
12:00 +23°C° 0 mm 1 m/S 710 mmHg 60%
13:00 +24°C° 0 mm 1 m/S 710 mmHg 56%
14:00 +24°C° 0 mm 1 m/S 710 mmHg 55%
15:00 +25°C° 0 mm 1 m/S 710 mmHg 54%
16:00 +25°C° 0 mm 1 m/S 710 mmHg 52%
17:00 +24°C° 0 mm 1 m/S 710 mmHg 61%
18:00 +23°C° 0 mm 1 m/S 709 mmHg 70%
19:00 +22°C° 0 mm 1 m/S 709 mmHg 79%
20:00 +20°C° 0 mm 1 m/S 709 mmHg 83%
21:00 +19°C° 0 mm 1 m/S 709 mmHg 87%
22:00 +16°C° 0 mm 1 m/S 709 mmHg 92%
23:00 +16°C° 0 mm 1 m/S 709 mmHg 92%

27 Juni, Sonntag

Zeit Temperatur Niederschläge Wind Luftdruck Luftfeuchtigkeit
00:00 +15°C° 0 mm 1 m/S 709 mmHg 92%
01:00 +15°C° 0 mm 1 m/S 708 mmHg 92%
02:00 +14°C° 0 mm 1 m/S 708 mmHg 92%
03:00 +14°C° 0 mm 1 m/S 708 mmHg 92%
04:00 +14°C° 0 mm 1 m/S 708 mmHg 92%
05:00 +15°C° 0 mm 1 m/S 708 mmHg 89%
06:00 +15°C° 0 mm 0 m/S 708 mmHg 85%
07:00 +16°C° 0 mm 0 m/S 708 mmHg 82%
08:00 +20°C° 0 mm 1 m/S 708 mmHg 75%
09:00 +22°C° 0 mm 1 m/S 708 mmHg 68%
10:00 +24°C° 0 mm 1 m/S 709 mmHg 61%
11:00 +25°C° 0 mm 1 m/S 708 mmHg 57%
12:00 +27°C° 0 mm 1 m/S 708 mmHg 53%
13:00 +28°C° 0 mm 1 m/S 708 mmHg 49%
14:00 +28°C° 0 mm 2 m/S 708 mmHg 50%
15:00 +28°C° 0 mm 2 m/S 708 mmHg 50%
16:00 +28°C° 0 mm 3 m/S 707 mmHg 50%
17:00 +27°C° 0.1 mm 2 m/S 707 mmHg 60%
18:00 +26°C° 0.1 mm 2 m/S 707 mmHg 70%
19:00 +24°C° 0.1 mm 1 m/S 707 mmHg 80%
20:00 +21°C° 2.6 mm 2 m/S 707 mmHg 85%
21:00 +20°C° 2.6 mm 2 m/S 707 mmHg 90%
22:00 +18°C° 2.6 mm 2 m/S 707 mmHg 95%
23:00 +18°C° 0.3 mm 2 m/S 707 mmHg 95%

28 Juni, Montag

Zeit Temperatur Niederschläge Wind Luftdruck Luftfeuchtigkeit
00:00 +18°C° 0.3 mm 1 m/S 707 mmHg 96%
01:00 +18°C° 0.3 mm 1 m/S 707 mmHg 96%
02:00 +16°C° 0 mm 1 m/S 707 mmHg 96%
03:00 +16°C° 0 mm 1 m/S 707 mmHg 96%
04:00 +15°C° 0 mm 1 m/S 707 mmHg 96%
05:00 +16°C° 0 mm 1 m/S 707 mmHg 95%
06:00 +18°C° 0 mm 1 m/S 708 mmHg 94%
07:00 +18°C° 0 mm 1 m/S 708 mmHg 93%
08:00 +19°C° 0 mm 1 m/S 708 mmHg 91%
09:00 +19°C° 0 mm 2 m/S 709 mmHg 88%
10:00 +19°C° 0 mm 2 m/S 709 mmHg 85%
11:00 +20°C° 0.1 mm 2 m/S 709 mmHg 81%
12:00 +21°C° 0.1 mm 2 m/S 709 mmHg 78%
13:00 +23°C° 0.1 mm 2 m/S 709 mmHg 74%
14:00 +21°C° 0.6 mm 2 m/S 709 mmHg 80%
15:00 +20°C° 0.6 mm 2 m/S 709 mmHg 85%
16:00 +20°C° 0.6 mm 2 m/S 709 mmHg 91%
17:00 +19°C° 1.3 mm 2 m/S 709 mmHg 93%
18:00 +19°C° 1.3 mm 1 m/S 709 mmHg 95%
19:00 +18°C° 1.3 mm 1 m/S 710 mmHg 98%
20:00 +18°C° 0.6 mm 1 m/S 710 mmHg 98%
21:00 +18°C° 0.6 mm 1 m/S 710 mmHg 98%
22:00 +18°C° 0.6 mm 1 m/S 710 mmHg 98%
23:00 +18°C° 0.3 mm 1 m/S 710 mmHg 97%

29 Juni, Dienstag

Zeit Temperatur Niederschläge Wind Luftdruck Luftfeuchtigkeit
00:00 +16°C° 0.3 mm 1 m/S 709 mmHg 97%
01:00 +16°C° 0.3 mm 1 m/S 709 mmHg 97%
02:00 +16°C° 0.2 mm 1 m/S 709 mmHg 97%
03:00 +16°C° 0.2 mm 1 m/S 709 mmHg 97%
04:00 +16°C° 0.2 mm 1 m/S 709 mmHg 98%
05:00 +16°C° 0.1 mm 1 m/S 709 mmHg 96%
06:00 +16°C° 0.1 mm 1 m/S 709 mmHg 95%
07:00 +16°C° 0.1 mm 0 m/S 709 mmHg 94%
08:00 +19°C° 0 mm 1 m/S 709 mmHg 88%
09:00 +20°C° 0 mm 1 m/S 709 mmHg 82%
10:00 +21°C° 0 mm 1 m/S 709 mmHg 77%
11:00 +21°C° 0.2 mm 1 m/S 709 mmHg 78%
12:00 +20°C° 0.2 mm 2 m/S 709 mmHg 79%
13:00 +20°C° 0.2 mm 2 m/S 709 mmHg 80%
14:00 +21°C° 0.6 mm 1 m/S 709 mmHg 83%
15:00 +21°C° 0.6 mm 1 m/S 709 mmHg 85%
16:00 +20°C° 0.6 mm 1 m/S 709 mmHg 88%
17:00 +20°C° 0.7 mm 1 m/S 709 mmHg 91%
18:00 +18°C° 0.7 mm 2 m/S 709 mmHg 94%
19:00 +17°C° 0.7 mm 2 m/S 709 mmHg 96%
20:00 +17°C° 0.8 mm 2 m/S 710 mmHg 97%
21:00 +16°C° 0.8 mm 1 m/S 710 mmHg 97%
22:00 +16°C° 0.8 mm 1 m/S 710 mmHg 98%
23:00 +15°C° 0.2 mm 1 m/S 711 mmHg 97%
Mehr zeigen

Wir brauchen deine Erlaubnis

Meteoprog und unser Service Anbieter werden persönliche Daten aufbewahren, so wie Cookies, Geräte Bezeichnung oder ähnliche Technologien von deinem Gerät und Prozess, so wie Persönliche Daten Inhalte und Werbungen, genauso wie social Media und den Verkehr zu analysieren.

  • Aufbewahrung und/oder Zugang zu deiner Geräte Informationen.

    Cookies, Geräte Bezeichnung oder andere Informationen, können aufbewahrt oder Zugang zu deinem Gerät erhalten, für den Grund, der oben angegeben wird.

  • Personalisierte Werbung und Inhalte, Messungen, Einblick in das Publikum und Produkt Entwicklung.

    Werbungen und Inhalte können personalisiert werden, basierend auf ein Profil. Mehr Daten können besser personalisierte Werbungen und Inhalte hinzufügen. Werbung und Inhalte können gezeigt und gemessen werden. Einblicke über das Publikum, welche die Werbung gesehen haben und den Inhalt, können abgeleitet werden. So wie Daten können genutzt werden, um es zu verbessern oder die Benutzer Erfahrung zu verbessern das System und die Software.

Wenn du “Ich stimme zu” klickst, erlaubst du uns, die Cookies zu benutzen die Geräte Bezeichnung, den Web oder ähnliche Technologien zu benutzen. Deine Settings, können in deinem Gerät bei deinem Browser geändert werden.

Für den bestimmten Zweck, berechtigten Interessen beruhen darauf, mehr als auf den Inhalt. Du kannst mehr darüber in unseren Privaten und Cookie Politik lesen.